{"data":{"norad_id":32951,"epoch":"2026-05-25T03:50:38.783040Z","epoch_age_seconds":58447,"freshness":"FRESH","line1":"1 32951U 08024A   26145.16017110  .00000023  00000+0  00000+0 0  9992","line2":"2 32951   0.0314 111.4574 0003047 318.2397 107.7015  1.00270129 45620","mean_motion":1.00270129,"eccentricity":0.0003047,"inclination_deg":0.0314,"raan_deg":111.4574,"arg_perigee_deg":318.2397,"mean_anomaly_deg":107.7015,"bstar":0,"rev_number":4562,"period_min":1436.1206217257,"perigee_km":35774.211469211,"apogee_km":35799.906939778,"semimajor_km":42165.196204494,"source":"CELESTRAK","updated_at":"2026-05-25T13:38:14.327111Z"}}